TimeEDT,TemperatureF,Dew PointF,Humidity,Sea Level PressureIn,VisibilityMPH,Wind Direction,Wind SpeedMPH,Gust SpeedMPH,PrecipitationIn,Events,Conditions,WindDirDegrees,DateUTC
12:58 AM,51.1,46.0,83,30.27,10.0,NNE,4.6,-,N/A,,Clear,30,2013-04-26 04:58:00
1:58 AM,52.0,46.0,80,30.27,10.0,NE,4.6,-,N/A,,Clear,50,2013-04-26 05:58:00
2:58 AM,50.0,46.9,89,30.27,10.0,NNE,3.5,-,N/A,,Clear,30,2013-04-26 06:58:00
3:58 AM,51.1,46.9,86,30.28,10.0,ENE,3.5,-,N/A,,Clear,60,2013-04-26 07:58:00
4:58 AM,48.9,46.9,93,30.29,10.0,NNE,3.5,-,N/A,,Clear,30,2013-04-26 08:58:00
5:58 AM,48.9,46.9,93,30.30,10.0,NNE,4.6,-,N/A,,Clear,30,2013-04-26 09:58:00
6:58 AM,50.0,48.0,93,30.33,10.0,Variable,4.6,-,N/A,,Unknown,0,2013-04-26 10:58:00
7:58 AM,55.0,48.9,80,30.34,10.0,NNE,5.8,-,N/A,,Clear,20,2013-04-26 11:58:00
8:58 AM,60.1,46.9,62,30.36,10.0,NE,9.2,-,N/A,,Clear,50,2013-04-26 12:58:00
9:58 AM,64.0,37.0,37,30.38,10.0,NNE,16.1,21.9,N/A,,Clear,30,2013-04-26 13:58:00
10:58 AM,66.0,37.9,36,30.40,10.0,NE,12.7,21.9,N/A,,Clear,40,2013-04-26 14:58:00
12:58 PM,66.9,43.0,42,30.38,10.0,NE,11.5,21.9,N/A,,Clear,50,2013-04-26 16:58:00
2:58 PM,66.9,44.1,44,30.38,10.0,East,9.2,-,N/A,,Clear,80,2013-04-26 18:58:00
3:58 PM,66.9,44.1,44,30.36,10.0,East,9.2,-,N/A,,Clear,80,2013-04-26 19:58:00
4:58 PM,66.9,33.1,28,30.36,10.0,ENE,10.4,-,N/A,,Clear,60,2013-04-26 20:58:00
6:58 PM,61.0,36.0,39,30.36,10.0,East,10.4,16.1,N/A,,Clear,80,2013-04-26 22:58:00
7:58 PM,59.0,46.9,64,30.36,10.0,East,10.4,17.3,N/A,,Clear,80,2013-04-26 23:58:00
8:58 PM,57.9,46.9,67,30.38,10.0,East,8.1,-,N/A,,Clear,90,2013-04-27 00:58:00
9:58 PM,57.9,48.0,70,30.40,10.0,East,9.2,-,N/A,,Clear,80,2013-04-27 01:58:00
10:58 PM,57.0,48.9,74,30.40,10.0,East,8.1,-,N/A,,Clear,80,2013-04-27 02:58:00
11:58 PM,57.0,50.0,77,30.40,10.0,East,5.8,-,N/A,,Clear,80,2013-04-27 03:58:00